Weather History for Steamboat Springs, CO

Change the Weather History Date:

Tuesday, October 18, 2011

  Actual Average Record
Temperature  
Mean Temperature 38 °F -  
Max Temperature 50 °F 56 °F 76 °F (1958)
Min Temperature 27 °F 24 °F 8 °F (1968)
Degree Days  
Heating Degree Days 26    
Moisture  
Dew Point 26 °F    
Average Humidity 69    
Maximum Humidity 100    
Minimum Humidity 30    
Precipitation  
Precipitation 0.00 in - - ()
Sea Level Pressure  
Sea Level Pressure 30.39 in    
Wind  
Wind Speed 2 mph (SSW)    
Max Wind Speed 13 mph    
Max Gust Speed -    
Visibility 10 miles    
Events      
Averages and records for this station are not official NWS values.
T = Trace of Precipitation, MM = Missing Value Source: NWS Daily Summary

Daily Weather History Graph

Daily Weather History Graph

Search for Another Location

Airport:

Trip Planner

Search our weather history database for the weather conditions in past years. The results will help you decide how hot, cold, wet, or windy it might be!

Date:

Astronomy

Oct. 18, 2011 Rise Set
Actual Time 7:21 AM MDT 6:23 PM MDT
Civil Twilight 6:53 AM MDT 6:50 PM MDT
Nautical Twilight 6:22 AM MDT 7:22 PM MDT
Astronomical Twilight 5:50 AM MDT 7:53 PM MDT
Moon 11:06 PM MDT (10/18) 1:15 PM MDT (10/18)
Length of Visible Light 11h 56m
Length of Day
11h 01m
Waning Gibbous, 64% of the Moon is Illuminated
Oct 18
Waning Gibbous
Oct 19
Last Quarter
Oct 26
New
Nov 2
First Quarter
Nov 10
Full

Hourly Weather History & Observations

Time (MDT) Temp. Windchill Dew Point Humidity Pressure Visibility Wind Dir Wind Speed Gust Speed Precip Events Conditions
12:06 AM 32.2 °F 28.9 °F 28.2 °F 85% 30.34 in 10.0 mi East 3.5 mph - N/A   Mostly Cloudy
12:26 AM 31.8 °F - 29.5 °F 91% 30.34 in 10.0 mi Calm Calm - N/A   Overcast
12:46 AM 31.3 °F - 29.7 °F 94% 30.35 in 10.0 mi Calm Calm - N/A   Overcast
1:06 AM 31.8 °F - 30.2 °F 94% 30.34 in 10.0 mi Calm Calm - N/A   Overcast
1:26 AM 31.1 °F - 29.8 °F 95% 30.35 in 10.0 mi Calm Calm - N/A   Overcast
1:46 AM 31.3 °F - 30.2 °F 96% 30.35 in 10.0 mi Calm Calm - N/A   Overcast
2:06 AM 31.1 °F - 30.0 °F 96% 30.35 in 10.0 mi Calm Calm - N/A   Mostly Cloudy
2:26 AM 30.9 °F - 30.0 °F 96% 30.36 in 10.0 mi Calm Calm - N/A   Mostly Cloudy
2:46 AM 30.9 °F - 30.0 °F 96% 30.37 in 10.0 mi Calm Calm - N/A   Overcast
3:06 AM 31.3 °F - 30.2 °F 96% 30.37 in 10.0 mi Calm Calm - N/A   Overcast
3:26 AM 31.5 °F - 30.0 °F 94% 30.36 in 10.0 mi Calm Calm - N/A   Overcast
3:46 AM 30.2 °F - 29.7 °F 98% 30.37 in 10.0 mi Calm Calm - N/A   Mostly Cloudy
4:06 AM 30.9 °F - 30.0 °F 96% 30.38 in 10.0 mi Calm Calm - N/A   Scattered Clouds
4:26 AM 29.8 °F - 29.1 °F 97% 30.38 in 10.0 mi Calm Calm - N/A   Clear
4:46 AM 29.8 °F - 29.5 °F 99% 30.38 in 10.0 mi Calm Calm - N/A   Scattered Clouds
5:26 AM 29.3 °F - 28.9 °F 99% 30.40 in 10.0 mi Calm Calm - N/A   Clear
5:46 AM 28.2 °F - 28.0 °F 99% 30.40 in 10.0 mi Calm Calm - N/A   Clear
6:06 AM 28.9 °F - 28.6 °F 99% 30.41 in 10.0 mi Calm Calm - N/A   Clear
6:26 AM 29.1 °F - 28.6 °F 98% 30.41 in 10.0 mi Calm Calm - N/A   Clear
6:46 AM 28.4 °F - 28.0 °F 99% 30.41 in 10.0 mi Calm Calm - N/A   Clear
7:06 AM 28.2 °F - 27.9 °F 99% 30.42 in 10.0 mi Calm Calm - N/A   Clear
7:26 AM 27.5 °F - 27.5 °F 100% 30.42 in 10.0 mi Calm Calm - N/A   Clear
7:46 AM 27.9 °F - 27.5 °F 99% 30.42 in 10.0 mi Calm Calm - N/A   Clear
8:06 AM 28.4 °F - 28.0 °F 99% 30.43 in 10.0 mi Calm Calm - N/A   Clear
8:26 AM 29.1 °F - 28.4 °F 97% 30.43 in 10.0 mi Calm Calm - N/A   Clear
8:46 AM 30.0 °F - 28.4 °F 94% 30.44 in 10.0 mi Calm Calm - N/A   Clear
9:06 AM 31.1 °F - 29.3 °F 93% 30.45 in 10.0 mi Calm Calm - N/A   Clear
9:26 AM 32.0 °F - 27.3 °F 83% 30.45 in 10.0 mi Calm Calm - N/A   Clear
9:46 AM 33.8 °F - 28.8 °F 82% 30.45 in 10.0 mi Calm Calm - N/A   Clear
10:06 AM 36.0 °F - 28.6 °F 75% 30.45 in 10.0 mi Calm Calm - N/A   Clear
10:26 AM 37.6 °F - 28.2 °F 69% 30.45 in 10.0 mi Calm Calm - N/A   Clear
10:46 AM 39.4 °F - 27.5 °F 62% 30.45 in 10.0 mi Calm Calm - N/A   Clear
11:26 AM 42.4 °F - 24.6 °F 49% 30.44 in 10.0 mi Calm Calm - N/A   Clear
11:46 AM 43.5 °F 40.9 °F 22.6 °F 44% 30.44 in 10.0 mi SW 4.6 mph - N/A   Clear
12:06 PM 45.0 °F 42.6 °F 21.9 °F 40% 30.43 in 10.0 mi South 4.6 mph - N/A   Clear
12:26 PM 46.6 °F - 23.0 °F 39% 30.42 in 10.0 mi SSE 5.8 mph - N/A   Clear
12:46 PM 46.9 °F - 21.6 °F 37% 30.42 in 10.0 mi Calm Calm - N/A   Clear
1:06 PM 47.1 °F - 22.6 °F 38% 30.41 in 10.0 mi South 5.8 mph - N/A   Scattered Clouds
1:26 PM 47.1 °F - 21.7 °F 37% 30.40 in 10.0 mi South 4.6 mph - N/A   Scattered Clouds
1:46 PM 46.2 °F - 22.1 °F 39% 30.40 in 10.0 mi Calm Calm - N/A   Scattered Clouds
2:06 PM 48.4 °F - 22.1 °F 36% 30.39 in 10.0 mi SW 11.5 mph - N/A   Mostly Cloudy
2:26 PM 49.6 °F - 21.9 °F 34% 30.38 in 10.0 mi SW 9.2 mph - N/A   Scattered Clouds
2:46 PM 50.4 °F - 21.0 °F 32% 30.38 in 10.0 mi WSW 12.7 mph - N/A   Scattered Clouds
3:06 PM 50.2 °F - 20.8 °F 32% 30.37 in 10.0 mi South 9.2 mph - N/A   Scattered Clouds
3:26 PM 50.0 °F - 20.1 °F 31% 30.36 in 10.0 mi SW 11.5 mph - N/A   Clear
3:46 PM 50.5 °F - 19.8 °F 30% 30.36 in 10.0 mi SW 8.1 mph - N/A   Clear
4:06 PM 50.7 °F - 19.8 °F 30% 30.36 in 10.0 mi SW 3.5 mph - N/A   Clear
4:26 PM 49.1 °F - 20.3 °F 32% 30.36 in 10.0 mi WSW 5.8 mph - N/A   Clear
4:46 PM 50.4 °F - 19.6 °F 30% 30.36 in 10.0 mi SW 6.9 mph - N/A   Clear
5:06 PM 49.5 °F - 19.4 °F 31% 30.36 in 10.0 mi SSW 3.5 mph - N/A   Clear
5:26 PM 47.8 °F - 20.8 °F 34% 30.36 in 10.0 mi SW 3.5 mph - N/A   Clear
5:46 PM 49.3 °F - 19.4 °F 31% 30.36 in 10.0 mi South 4.6 mph - N/A   Clear
6:06 PM 48.4 °F - 18.3 °F 30% 30.36 in 10.0 mi SW 5.8 mph - N/A   Scattered Clouds
6:26 PM 46.6 °F - 17.6 °F 32% 30.36 in 10.0 mi SSW 3.5 mph - N/A   Mostly Cloudy
6:46 PM 45.5 °F 44.2 °F 18.5 °F 34% 30.36 in 10.0 mi South 3.5 mph - N/A   Scattered Clouds
7:06 PM 44.2 °F - 19.9 °F 38% 30.36 in 10.0 mi Calm Calm - N/A   Clear
7:26 PM 41.9 °F - 20.3 °F 42% 30.36 in 10.0 mi Calm Calm - N/A   Clear
7:46 PM 41.7 °F - 19.4 °F 41% 30.37 in 10.0 mi Calm Calm - N/A   Clear
8:06 PM 37.8 °F 35.3 °F 25.0 °F 60% 30.37 in 10.0 mi SSE 3.5 mph - N/A   Clear
8:26 PM 38.3 °F 33.9 °F 24.3 °F 57% 30.37 in 10.0 mi SSE 5.8 mph - N/A   Clear
8:46 PM 36.0 °F - 24.8 °F 64% 30.37 in 10.0 mi Calm Calm - N/A   Clear
9:06 PM 35.2 °F 32.4 °F 25.0 °F 66% 30.38 in 10.0 mi ENE 3.5 mph - N/A   Clear
9:26 PM 35.4 °F 30.5 °F 24.6 °F 65% 30.38 in 10.0 mi ESE 5.8 mph - N/A   Clear
9:46 PM 34.5 °F - 23.7 °F 65% 30.37 in 10.0 mi Calm Calm - N/A   Clear
10:06 PM 35.1 °F - 23.0 °F 61% 30.37 in 10.0 mi Calm Calm - N/A   Clear
10:26 PM 34.2 °F - 23.5 °F 65% 30.37 in 10.0 mi Calm Calm - N/A   Clear
10:46 PM 32.7 °F - 24.3 °F 71% 30.37 in 10.0 mi Calm Calm - N/A   Clear
11:06 PM 32.5 °F - 24.3 °F 72% 30.37 in 10.0 mi Calm Calm - N/A   Clear
11:26 PM 33.3 °F - 23.7 °F 68% 30.37 in 10.0 mi Calm Calm - N/A   Clear
11:46 PM 32.0 °F - 23.7 °F 71% 30.37 in 10.0 mi Calm Calm - N/A   Clear